Terug naar catalogus

ONEWEB-0529

ActiefCommunicatiePO
NORAD 54145·PAYLOAD·🇬🇧 United Kingdom

Gelanceerd Oct 22, 2022 vanaf Satish Dhawan Space Centre

Loading…

Volgende Passages (komende 24 uur)

TLE

VersSource: CelesTrak SupGP

Epoch: Sep 14, 2026, 21:30 UTC

1 54145C 22138AJ  26257.89597639  .00001026  00000+0  25660-2 0  2579
2 54145  87.9107 287.1020 0001975  87.3548 305.7411 13.19724052    16

Volg ONEWEB-0529 in realtime met AllMySat

Download on the App Store